Weather Roundup
Issued by NWS Springfield, MO

Home | Current Version | Previous Version | Text Only | Print | Product List | Glossary On
Versions: 1 2 3 4 5 6 7 8 9 10 11 12 13 14 15 16 17 18 19 20 21 22 23 24 25 26 27 28 29 30 31 32 33 34 35 36 37 38 39 40 41 42 43 44 45 46 47 48 49 50
000
NZUS99 KSGF 281107
HRRSGF

HOURLY WEATHER
NATIONAL WEATHER SERVICE SPRINGFIELD MO
600 AM CDT MON JUL 28 2014

......SGF CWA......

CITY           SKY/WX    TMP DP  RH WIND       PRES   REMARKS
SPRINGFIELD    CLEAR     60  55  83 N7        30.15R
JOPLIN         CLEAR     62  58  86 CALM      30.17R
WEST PLAINS    CLEAR     63  56  78 NW6       30.12R
ROLLA          CLEAR     61  56  83 NW8       30.09R
OSAGE BEACH    CLEAR     64  55  72 NW5       30.12R
BRANSON        CLEAR     63  57  82 NW5       30.16R

......SURROUNDING SGF CWA......

CITY           SKY/WX    TMP DP  RH WIND       PRES   REMARKS
CHANUTE        CLEAR     60  57  89 N5        30.18R
PARSONS        CLEAR     60  57  89 CALM      30.19R
COFFEYVILLE    CLEAR     64  59  83 CALM      30.17R HAZE
EMPORIA        PTCLDY    59  57  93 N5        30.20R
GROVE OK       CLEAR     66  61  82 CALM      30.17R
ROGERS AR      CLEAR     63  60  90 CALM      30.18R
SILOAM SPRINGS CLEAR     64  55  72 N5        30.18R
HARRISON AR    CLEAR     64  59  83 NW6       30.16R
NEAR YELLVILLE CLEAR     66  59  77 NW5       30.13R

......KANSAS AND MISSOURI......

CITY           SKY/WX    TMP DP  RH WIND       PRES   REMARKS
KANSAS CTY INT CLEAR     59  56  89 NW7       30.17R
DOWNTOWN KC    CLEAR     65  57  75 NW5       30.16R
COLUMBIA       CLEAR     61  57  87 W8        30.11R
SEDALIA        CLEAR     61  56  83 NW7       30.13S
ST JOSEPH      CLEAR     59  56  89 N6        30.18S
ST LOUIS       CLEAR     66  59  78 NW6       30.05R
SPIRIT OF STL  CLEAR     64  58  80 NW5       30.05R
KIRKSVILLE     CLEAR     60  57  89 NW7       30.13R
WICHITA        PTCLDY    68  57  68 NE8       30.20R
TOPEKA         CLEAR     63  58  83 N7        30.20R
OLATHE         CLEAR     63  57  81 N6        30.17R

......TENNESSEE......

CITY           SKY/WX    TMP DP  RH WIND       PRES   REMARKS
MEMPHIS        PTCLDY    74  61  63 N7        30.04R
NASHVILLE      CLEAR     68  61  78 W3        29.99R

......ARKANSAS.......

CITY           SKY/WX    TMP DP  RH WIND       PRES   REMARKS
FAYETTEVILLE   CLEAR     60  60 100 CALM      30.16R
FT SMITH       CLEAR     73  65  75 NE3       30.11R
LITTLE ROCK    PTCLDY    74  63  68 N8        30.07R

......OKLAHOMA.......

CITY           SKY/WX    TMP DP  RH WIND       PRES   REMARKS
TULSA          MOCLDY    68  62  81 NW5       30.14R
PONCA CITY     CLEAR     64  59  83 N3        30.17R
MCALESTER      PTCLDY    72  68  87 N3        30.12R
OKLAHOMA CITY  MOCLDY    76  61  59 NE15      30.17R

......IOWA............

CITY           SKY/WX    TMP DP  RH WIND       PRES   REMARKS
DES MOINES     PTCLDY    61  58  90 N6        30.16R
QUAD CITIES    PTCLDY    62  53  72 N6        30.07R

......ILLINOIS........

CITY           SKY/WX    TMP DP  RH WIND       PRES   REMARKS
QUINCY         CLEAR     60  58  92 NW7       30.07R
CHICAGO        PTCLDY    60  47  61 NW12      29.99R




USA.gov is the U.S. government's official web portal to all federal, state and local government web resources and services.